Location: Góry Miechowskie
(50.3599°N, 20.1803°E)
Time: 22:38:22
(UTC+00:00)

Vanguard 3 - Pass Details

Date: 16 September 2024
Orbit: 507 x 3224 km, 33.4° (Epoch: 02 October)

Event Time Altitude Azimuth Distance (km) Brightness Sun altitude
Rises 02:32:51 0° 183° (S) 6,479 11.5 -16.8°
Reaches altitude 10° 02:39:41 10° 165° (SSE) 5,847 11.4 -15.8°
Maximum altitude 02:49:06 16° 134° (SE) 5,583 11.7 -14.4°
Drops below altitude 10° 02:58:47 10° 104° (ESE) 6,099 12.5 -13.0°
Sets 03:06:02 0° 87° (E) 6,895 13.5 -11.9°
